Sherbrooke, Quebec

11:53 PM EST on February 21, 2017 (GMT -0500)
Sherbrooke

Weather History for CYSC - May, 2013

Change the Weather History Date:

Friday, May 17, 2013

  Actual Average Record
Temperature  
Mean Temperature 50 °F -  
Max Temperature 60 °F 61 °F 77 °F (1998)
Min Temperature 41 °F 39 °F 32 °F (2003)
Degree Days  
Heating Degree Days 14    
Moisture  
Dew Point 40 °F    
Average Humidity 77    
Maximum Humidity 93    
Minimum Humidity 33    
Precipitation  
Precipitation 0.01 in - - ()
Sea Level Pressure  
Sea Level Pressure 30.03 in    
Wind  
Wind Speed 6 mph ()    
Max Wind Speed 14 mph    
Max Gust Speed 21 mph    
Visibility 8.1 miles    
Events Rain    
Averages and records for this station are not official NWS values.
T = Trace of Precipitation, MM = Missing Value Source: Averaged Metar Reports

Daily Weather History Graph

Daily Weather History Graph

Search for Another Location

Airport or City:

Trip Planner

Search our weather history database for the weather conditions in past years. The results will help you decide how hot, cold, wet, or windy it might be!

Date:

Astronomy

May. 17, 2013 Rise Set
Actual Time 5:13 AM EDT 8:13 PM EDT
Civil Twilight 4:39 AM EDT 8:48 PM EDT
Nautical Twilight 3:54 AM EDT 9:32 PM EDT
Astronomical Twilight 3:01 AM EDT 10:26 PM EDT
Moon 11:51 AM EDT (5/17) 12:56 AM EDT (5/17)
Length of Visible Light 16h 09m
Length of Day
14h 59m
Waxing Crescent, 45% of the Moon is Illuminated
May 17
Waxing Crescent
May 18
First Quarter
May 25
Full
May 31
Last Quarter
Jun 8
New

Hourly Weather History & Observations

Time (EDT) Temp. Windchill Dew Point Humidity Pressure Visibility Wind Dir Wind Speed Gust Speed Precip Events Conditions
12:00 AM 46.4 °F 43.5 °F 41.0 °F 81% 29.86 in 9.0 mi West 5.8 mph - N/A   Overcast
12:20 AM 46.4 °F 42.9 °F 41.0 °F 81% 29.86 in 9.0 mi WNW 6.9 mph - N/A Rain Light Rain
12:32 AM 46.4 °F 42.4 °F 42.8 °F 87% 29.87 in 8.0 mi West 8.1 mph - N/A Rain Light Rain
12:43 AM 44.6 °F 39.7 °F 42.8 °F 93% 29.87 in 8.0 mi West 9.2 mph - N/A   Overcast
1:00 AM 46.4 °F 42.9 °F 42.8 °F 87% 29.87 in 9.0 mi WSW 6.9 mph - N/A   Overcast
2:00 AM 46 °F - 41 °F 77% 29.88 in 10 mi West 5.8 mph - -   Overcast
2:00 AM 46.4 °F 42.9 °F 41.0 °F 81% 29.88 in 9.0 mi West 6.9 mph - N/A   Overcast
3:00 AM 46.4 °F 42.9 °F 41.0 °F 81% 29.90 in 9.0 mi West 6.9 mph - N/A   Overcast
4:00 AM 44.6 °F 39.7 °F 41.0 °F 87% 29.92 in 9.0 mi West 9.2 mph - N/A   Overcast
4:11 AM 44.6 °F 40.2 °F 41.0 °F 87% 29.92 in 9.0 mi WNW 8.1 mph - N/A   Overcast
4:58 AM 44.6 °F 41.4 °F 41.0 °F 87% 29.94 in 9.0 mi WNW 5.8 mph - N/A   Overcast
5:00 AM 45 °F - 41 °F 81% 29.95 in 10 mi NW 5.8 mph - -   Overcast
5:00 AM 44.6 °F 42.2 °F 41.0 °F 87% 29.95 in 9.0 mi NW 4.6 mph - N/A   Overcast
5:20 AM 44.6 °F 40.2 °F 41.0 °F 87% 29.96 in 9.0 mi NW 8.1 mph - N/A   Overcast
6:00 AM 44.6 °F 40.2 °F 41.0 °F 87% 29.97 in 9.0 mi NW 8.1 mph - N/A   Overcast
6:38 AM 44.6 °F 40.7 °F 41.0 °F 87% 29.99 in 6.0 mi NW 6.9 mph - N/A   Overcast
6:48 AM 42.8 °F 36.6 °F 41.0 °F 93% 30.00 in 4.0 mi NE 11.5 mph - N/A   Overcast
6:51 AM 42.8 °F 37.0 °F 41.0 °F 93% 30.00 in 4.0 mi NE 10.4 mph - N/A Rain Light Rain
6:55 AM 42.8 °F 37.5 °F 39.2 °F 87% 30.00 in 3.0 mi NE 9.2 mph - N/A Rain Light Rain
7:00 AM 42.8 °F 37.5 °F 39.2 °F 87% 30.01 in 5.0 mi NE 9.2 mph 17.3 mph N/A Rain Light Rain
7:20 AM 41.0 °F 36.4 °F 39.2 °F 93% 30.02 in 6.0 mi NE 6.9 mph - N/A Rain Light Rain
7:26 AM 42.8 °F 38.6 °F 41.0 °F 93% 30.02 in 4.0 mi ENE 6.9 mph - N/A Rain Light Rain
7:27 AM 42.8 °F 38.6 °F 41.0 °F 93% 30.02 in 4.0 mi ENE 6.9 mph - N/A   Overcast
7:29 AM 42.8 °F 38.6 °F 41.0 °F 93% 30.02 in 4.0 mi NE 6.9 mph - N/A Rain Light Rain
7:34 AM 42.8 °F 39.3 °F 41.0 °F 93% 30.02 in 6.0 mi NE 5.8 mph - N/A Rain Light Rain
7:48 AM 42.8 °F - 41.0 °F 93% 30.04 in 5.0 mi Variable 2.3 mph - N/A Rain Light Rain
7:58 AM 42.8 °F - 41.0 °F 93% 30.04 in 7.0 mi Variable 2.3 mph - N/A Rain Light Rain
8:00 AM 43 °F - 41 °F 91% 30.05 in 9 mi NNE 2.3 mph - - Rain Light Rain
8:00 AM 42.8 °F 41.1 °F 41.0 °F 93% 30.04 in 9.0 mi ENE 3.5 mph - N/A Rain Light Rain
8:04 AM 42.8 °F - 41.0 °F 93% 30.05 in 9.0 mi Variable 2.3 mph - N/A   Overcast
8:41 AM 44.6 °F 41.4 °F 42.8 °F 93% 30.06 in 8.0 mi NNW 5.8 mph - N/A   Overcast
9:00 AM 46.4 °F 44.3 °F 42.8 °F 87% 30.07 in 9.0 mi North 4.6 mph - N/A   Overcast
9:23 AM 46.4 °F 44.3 °F 41.0 °F 81% 30.07 in 9.0 mi NW 4.6 mph - N/A   Overcast
10:00 AM 48.2 °F - 41.0 °F 76% 30.08 in 9.0 mi Variable 3.5 mph - N/A   Overcast
10:08 AM 48.2 °F - 41.0 °F 76% 30.08 in 9.0 mi Calm Calm - N/A   Mostly Cloudy
10:16 AM 50.0 °F - 42.8 °F 76% 30.08 in 9.0 mi Variable 2.3 mph - N/A   Overcast
10:18 AM 50.0 °F - 42.8 °F 76% 30.09 in 9.0 mi Variable 2.3 mph - N/A   Overcast
11:00 AM 51 °F - 38 °F 51% 30.10 in 10 mi North 2.3 mph - -   Clear
11:00 AM 50.0 °F - 37.4 °F 62% 30.09 in 9.0 mi Variable 2.3 mph - N/A   Overcast
12:00 PM 53.6 °F - 37.4 °F 54% 30.10 in 9.0 mi NW 5.8 mph - N/A   Overcast
1:00 PM 57.2 °F - 37.4 °F 48% 30.10 in 9.0 mi NW 6.9 mph - N/A   Mostly Cloudy
2:00 PM 58 °F - 39 °F 38% 30.10 in 10 mi NW 5.8 mph - -  
2:00 PM 59.0 °F - 39.2 °F 48% 30.10 in 9.0 mi West 4.6 mph - N/A   Scattered Clouds
3:00 PM 59.0 °F - 35.6 °F 42% 30.11 in 9.0 mi WNW 13.8 mph - N/A   Mostly Cloudy
4:00 PM 59.0 °F - 39.2 °F 48% 30.12 in 9.0 mi WNW 9.2 mph 17.3 mph N/A   Mostly Cloudy
5:00 PM 60 °F - 38 °F 33% 30.12 in 10 mi WNW 12.7 mph - -  
5:00 PM 60.8 °F - 39.2 °F 45% 30.12 in 9.0 mi WNW 12.7 mph 20.7 mph N/A   Mostly Cloudy
6:00 PM 57.2 °F - 39.2 °F 51% 30.14 in 9.0 mi WNW 8.1 mph - N/A   Mostly Cloudy
7:00 PM 57.2 °F - 39.2 °F 51% 30.16 in 9.0 mi NW 5.8 mph - N/A   Overcast
8:00 PM 53 °F - 40 °F 50% 30.17 in 10 mi WNW 3.5 mph - -  
8:00 PM 53.6 °F - 39.2 °F 58% 30.17 in 9.0 mi WNW 2.3 mph - N/A   Mostly Cloudy
9:00 PM 48.2 °F - 41.0 °F 76% 30.19 in 9.0 mi Calm Calm - N/A   Mostly Cloudy
10:00 PM 44.6 °F - 41.0 °F 87% 30.20 in 9.0 mi Variable 2.3 mph - N/A   Mostly Cloudy
11:00 PM 41.0 °F - 37.4 °F 87% 30.21 in 9.0 mi SSW 2.3 mph - N/A   Clear